Regional Weather Roundup
Issued by NWS Wakefield, VA

Home | Current Version | Previous Version | Graphics & Text | Print | Product List | Glossary Off
Versions: 1 2 3 4 5 6 7 8 9 10 11 12 13 14 15 16 17 18 19 20 21 22 23 24 25 26 27 28 29 30 31 32 33 34 35 36 37 38 39 40 41 42 43 44 45 46 47 48 49 50

000
ASUS41 KAKQ 290610
RWRAKQ

REGIONAL WEATHER ROUNDUP
NATIONAL WEATHER SERVICE WAKEFIELD VA
100 AM EST MON DEC 29 2014

Note: "fair" indicates few or no clouds below 12,000 feet with no
significant weather and/or obstructions to visibility. * = Denotes
station may not report precipitation (e.g., rain,snow,etc.),
thunder or fog.

VAZ042-051-052>054-056-290700-
NORTHERN VIRGINIA

CITY           SKY/WX    TMP DP  RH WIND       PRES   REMARKS
WASH NATIONAL  LGT RAIN  47  39  74 N12       30.13R
DULLES         LGT RAIN  42  34  73 N10       30.12R
FORT BELVOIR   LGT RAIN  44  41  88 NW3       30.13R
QUANTICO       LGT RAIN  45  39  79 NE10      30.13R
FREDERICKSBRG* DRIZZLE   47  46  96 N7        30.11R
STAFFORD*      RAIN      45  45 100 N9        30.15S
WARRENTON      LGT RAIN  45  44  97 NE8       30.11R
CULPEPER*      LGT RAIN  45  43  93 NE3       30.11S
MANASSAS*      CLOUDY    43  43 100 N9        30.12S
LEESBURG*      CLOUDY    43  36  75 N8        30.13S
WINCHESTER     CLOUDY    43  28  56 NW6       30.12S
FRONT ROYAL*   CLOUDY    41  34  75 N8        30.11S
LURAY*         CLOUDY    45  39  81 NE13      30.09R
$$

VAZ048-049-060>072-079>083-290700-
CENTRAL AND SOUTH CENTRAL VIRGINIA

CITY           SKY/WX    TMP DP  RH WIND       PRES   REMARKS
RICHMOND       LGT RAIN  51  47  86 N9        30.07R
CHESTERFIELD*  CLOUDY    52  41  66 N6        30.07F
PETERSBURG*    CLOUDY    51  51  97 CALM      30.06S
HANOVER        CLOUDY    49  45  86 VRB7      30.09R
TAPPAHANNOCK*  CLOUDY    51  43  73 N6        30.09R
QUINTON*       CLOUDY    50  47  90 N7        30.06S
CHARLOTTSVILLE LGT RAIN  47  44  90 NE7       30.08S
GORDONSVILLE*  CLOUDY    45  44  95 NE5       30.08S
ORANGE*        LGT RAIN  46  45  93 N7        30.10F
LOUISA*        DRIZZLE   48  45  87 NE6       30.07F
BUMPASS*       CLOUDY    46  43  89 NE3       30.09F
FARMVILLE*     CLOUDY    53  48  83 N6        30.05S
CREWE*         CLOUDY    52  49  88 CALM      30.05S
FORT PICKETT*  CLOUDY    52  49  87 CALM      30.05F
CHASE CITY*    CLOUDY    52  52 100 CALM      30.06S
CLARKSVILLE*   CLOUDY    52  52 100 CALM      30.05F
SOUTH HILL*    CLOUDY    55  54  97 CALM      30.11S
LAWRENCEVILLE* CLOUDY    54  54 100 CALM      30.05S
EMPORIA*       CLOUDY    54  54 100 CALM      30.07S
$$

VAZ088>098-290700-
SOUTHEAST VIRGINIA

CITY           SKY/WX    TMP DP  RH WIND       PRES   REMARKS
NORFOLK        CLOUDY    55  52  89 N3        30.04F
VIRGINIA BEACH CLOUDY    59  56  89 NW7       30.03F
NORFOLK NAVAL  CLOUDY    57  51  80 N5        30.06S
WEST POINT*    CLOUDY    51  49  93 CALM      30.08S
SALUDA*        CLOUDY    49  45  86 NW3       30.06S
NEWPORT NEWS   CLOUDY    57  51  80 CALM      30.05S
LANGLEY AFB    MOCLDY    52  48  87 N1        30.05S
FORT EUSTIS    CLOUDY    55  55 100 N2        30.03S
WILLIAMSBURG*  PTCLDY    55  54  94 CALM      30.06S
HR EXEC AP*    CLOUDY    54  52  94 CALM      30.07R VSB 1
FRANKLIN*      CLOUDY    55 N/A N/A CALM      30.05S
WAKEFIELD      CLOUDY    57  54  89 NW3       30.05F
$$

VAZ020-022-025-037-045-290700-
WEST CENTRAL AND SOUTHWEST VIRGINIA

CITY           SKY/WX    TMP DP  RH WIND       PRES   REMARKS
STAUNTON*      DRIZZLE   46  42  88 NE9       30.08S
WAYNESBORO*    CLOUDY    46  45  94 CALM      30.05F
HOT SPRINGS VA CLOUDY    38  38 100 W10       30.01S
LYNCHBURG      CLOUDY    47  45  93 CALM      30.08R
DANVILLE       CLOUDY    51  49  92 SW5       30.07S
SOUTH BOSTON*  CLOUDY    49  48  95 CALM      30.06F
MARTINSVILLE   CLOUDY    47  47 100 CALM      30.09S
ROANOKE        LGT RAIN  50  45  83 CALM      30.09R
BLACKSBURG     DRIZZLE   45  43  94 CALM      30.10S
DUBLIN*        RAIN      47  47 100 CALM      30.08S
MARION*        LGT RAIN  47  46  96 SW5       30.09F
HILLSVILLE*    LGT RAIN  45  45  98 CALM      30.07S
RICHLANDS*     LGT RAIN  41  40  95 CALM      30.07F VSB 1/4
WISE*          DRZL/FOG  41  41 100 CALM      30.07F VSB 1/2
ABINGDON*      LGT RAIN  48  48 100 CALM      30.07F VSB 1
$$

MDZ021>025-VAZ099-100-290700-
SOUTHERN MARYLAND AND THE DELMARVA PENINSULA

CITY           SKY/WX    TMP DP  RH WIND       PRES   REMARKS
PATUXENT RIVER LGT RAIN  47  43  86 N12       30.10R
BAY BRIDGE APT RAIN      43  37  81 N7        30.13R
LEONARDTOWN    CLOUDY    45  43  93 N3        30.11S
DOVER          LGT RAIN  43  43 100 NW9       30.09R
GEORGETOWN     LGT RAIN  49  46  90 N3        30.09F FOG
EASTON         DRIZZLE   46  46 100 N8        30.15R
CAMBRIDGE      CLOUDY    48  45  87 N7        30.10R
SALISBURY      CLOUDY    51  46  83 N12       30.08S
OCEAN CITY     CLOUDY    50  46  86 N7        30.08S
WALLOPS ISLAND CLOUDY    51  45  79 N3        30.07F
ACCOMACK*      CLOUDY    50  45  81 N3        30.06S
$$

NCZ012>017-030>032-290700-
NORTH CENTRAL AND EASTERN NORTH CAROLINA

CITY           SKY/WX    TMP DP  RH WIND       PRES   REMARKS
ROANOKE RAPIDS CLOUDY    52  52 100 CALM      30.04F FOG
RALEIGH        FOG       55  53  93 CALM      30.05F VSB 1/8
ELIZABETH CITY CLOUDY    61  56  83 CALM      30.04S
AHOSKIE*       FOG       55  54  97 CALM      30.05S VSB 1/4
EDENTON*       CLOUDY    56  56  99 CALM      30.05S FOG
CURRITUCK*     CLOUDY    57  56  95 CALM      30.05S FOG
KILL DEVIL HLS CLOUDY    57  57 100 CALM      30.03S FOG
MANTEO         CLOUDY    55  55 100 NW3       30.05S FOG
CAPE HATTERAS  CLOUDY    58  57  97 CALM      30.04F
TARBORO*       FOG       53  52  97 CALM      30.06S VSB 1/4
GOLDSBORO      FOG       59  59 100 W2        30.04F VSB 3/4
WASHINGTON     CLOUDY    58  58  99 CALM      30.06S
GREENVILLE     FOG       55  55 100 CALM      30.07S VSB 1
NEW BERN       CLOUDY    62  58  86 CALM      30.06F
WILMINGTON     CLOUDY    60  59  96 CALM      30.05F
$$

VAZ048-290700-
ELSEWHERE

CITY           SKY/WX    TMP DP  RH WIND       PRES   REMARKS
HARRISBURG PA  CLOUDY    41  27  57 NW10      30.12R
BALTIMORE      LGT RAIN  44  39  82 CALM      30.11S
ANNAPOLIS      LGT RAIN  44  39  82 N7        30.12R
ANDREWS AFB    LGT RAIN  43  42  93 N9        30.11R
PHILADELPHIA   CLOUDY    46  35  65 NW7       30.09F
HENDERSON NC   FOG       53  51  94 CALM      30.05F VSB 1/4
GREENSBORO     CLOUDY    49  49 100 CALM      30.05F FOG
ROCKY MOUNT    FOG       53  52  96 CALM      30.05F VSB 1/4
$$

VAZ100-290700-
MARINE

STATION/POSITION TIME  TEMP    WIND        PRES    WAVE   SWELL
                       AIR SEA DIR/SP/G            HT/PER HT/PER
                 (UTC) (F)     (DEG/KT/KT) (MB)    (FT/S) (FT/S)
CAPE MAY NJ      0600   45 47  320/  1/  6 1018.5S
LEWES DE         0600   45 45   10/ 10/ 12 1018.8F
15NM E FENWICK I 0600   47 45              1017.9F   2/ 6
OCEAN-CITY-INLET 0600   48 45   20/  5/  6 1017.9S
WACHAPREAGUE VA  0600   52 49   10/  2/  3 1017.9R
THOMAS POINT MD  0600   43 43   10/ 13/ 14 1020.9R
GOOSES REEF MD   0600   44     VRB 10/ 12  1018.6R   1/ 2
COVE POINT MD    0600   44      20/ 12/ 13 1019.1S
SOLOMONS ISLAND  0600      44                N/A
BISHOPS HEAD MD  0600   48 46   10/  9/ 12 1018.2S
PINEY POINT MD   0600           40/ 11/ 13   N/A
POTOMAC MD       0600   48 44   30/ 16/ 19 1018.2R   0
CAMBRIDGE MD     0600   46 43  330/  9/ 11 1019.0R
LEWISETTA VA     0600   49 45   20/  6/ 10 1018.2R
RAPPAHANNOCK LGT 0600           20/ 10/ 11 1018.2R
STINGRAY PT      0600   47 45   20/ 10/ 12 1018.5S   0
YORK RVR RNG VA  0600   49      30/  5/  6 1017.0R
YORKTOWN VA      0600   52 46  310/  3/  4 1017.4R
JAMESTOWN VA     0600   49 47  350/  4/  4   N/A     0
DOMINION TERM VA 0600   56      CALM  /  2 1017.3S
KIPTOPEKE VA     0600      51   10/  3/  3   N/A
CHES BAY BRIDGE  0600   52 46   10/  5/  8 1016.8R
CAPE HENRY VA    0600   51     330/  4/  5 1016.0R
CHESAPEAKE LGHT  0500   55     330/ 11/ 11 1017.9F
WILLOUBY STN VA  0600   54      30/  6/  6 1017.8S
S CRANEY ISL VA  0600          340/  3/  4 1017.1S
CAPE HENRY BUOY  0600      48                N/A     2/13   2/13
1ST LANDING BUOY 0600   49 46  340/  2/  4 1016.9R   1/ 5
CAPE CHARLES BUO 0600      48                N/A     2/13   2/13
64NM E OF VA BCH 0600   55 53  270/  4/  4 1016.6F   3/ 5   2/ 5
DUCK PIER NC     0600   57 50  270/  5/  5 1016.3S
44100 DUCK FRF   0600      50                N/A     2/13   2/13
44056 DUCK FRF   0600      49                N/A     2/13   2/13
OREGON INLET NC  0600   54 53  180/  5/  6 1017.1S
HATTERAS NC      0600   59 56   CALM  /  1 1017.7R
DIAMOND SHLS NC  0600   64                 1017.5F   3/13
CAPE LOOKOUT NC  0500   60     240/  5/  6 1017.5F
$$


USA.gov is the U.S. government's official web portal to all federal, state and local government web resources and services.